Weather History for West Palm Beach, FL

Change the Weather History Date:

Thursday, September 5, 2013

  Actual Average Record
Temperature  
Mean Temperature 86 °F 82 °F  
Max Temperature 92 °F 89 °F 94 °F (1951)
Min Temperature 80 °F 76 °F 68 °F (1924)
Degree Days  
Heating Degree Days 0 0  
Month to date heating degree days 0 0  
Since 1 July heating degree days 0 0  
Cooling Degree Days 21 17  
Month to date cooling degree days 97 85  
Year to date cooling degree days 2981 2791  
Growing Degree Days 36 (Base 50)    
Moisture  
Dew Point 74 °F    
Average Humidity 68    
Maximum Humidity 79    
Minimum Humidity 56    
Precipitation  
Precipitation 0.00 in 0.28 in 6.26 in (2004)
Month to date precipitation 0.53 1.42  
Year to date precipitation 48.15 42.14  
Snow  
Snow 0.00 in - - ()
Month to date snowfall 0.0  
Since 1 July snowfall 0.0  
Since 1 September snowfall 0.0  
Snow Depth 0.00 in    
Sea Level Pressure  
Sea Level Pressure 30.04 in    
Wind  
Wind Speed 9 mph (East)    
Max Wind Speed 14 mph    
Max Gust Speed 17 mph    
Visibility 10 miles    
Events      
T = Trace of Precipitation, MM = Missing Value Source: NWS Daily Summary

Daily Weather History Graph

Daily Weather History Graph

Search for Another Location

Airport:

Trip Planner

Search our weather history database for the weather conditions in past years. The results will help you decide how hot, cold, wet, or windy it might be!

Date:

Astronomy

Sep. 05, 2013 Rise Set
Actual Time 7:01 AM EDT 7:35 PM EDT
Civil Twilight 6:38 AM EDT 7:59 PM EDT
Nautical Twilight 6:10 AM EDT 8:26 PM EDT
Astronomical Twilight 5:42 AM EDT 8:54 PM EDT
Moon 7:06 AM EDT (9/5) 7:35 PM EDT (9/5)
Length of Visible Light 13h 20m
Length of Day
12h 33m
New Moon, 0% of the Moon is Illuminated
Sep 5
New Moon
Sep 12
First Quarter
Sep 19
Full
Sep 26
Last Quarter
Oct 4
New

Hourly Weather History & Observations

Time (EDT) Temp. Heat Index Dew Point Humidity Pressure Visibility Wind Dir Wind Speed Gust Speed Precip Events Conditions
12:53 AM 84.0 °F 91.9 °F 75.0 °F 74% 30.05 in 10.0 mi ENE 4.6 mph - N/A   Scattered Clouds
1:53 AM 82.9 °F 89.4 °F 73.9 °F 74% 30.04 in 10.0 mi East 8.1 mph - N/A   Scattered Clouds
2:53 AM 82.0 °F 88.6 °F 75.0 °F 79% 30.02 in 10.0 mi East 8.1 mph - N/A   Mostly Cloudy
3:53 AM 82.0 °F 88.6 °F 75.0 °F 79% 30.00 in 10.0 mi East 10.4 mph - N/A   Mostly Cloudy
4:53 AM 82.0 °F 87.9 °F 73.9 °F 76% 30.01 in 10.0 mi ESE 8.1 mph - N/A   Mostly Cloudy
5:53 AM 82.0 °F 87.9 °F 73.9 °F 76% 30.02 in 10.0 mi ESE 10.4 mph - N/A   Mostly Cloudy
6:53 AM 81.0 °F 85.2 °F 72.0 °F 74% 30.03 in 10.0 mi ESE 8.1 mph - N/A   Mostly Cloudy
7:53 AM 82.0 °F 87.9 °F 73.9 °F 76% 30.04 in 10.0 mi ESE 9.2 mph - N/A   Mostly Cloudy
8:53 AM 82.9 °F 88.8 °F 73.0 °F 72% 30.05 in 10.0 mi ESE 10.4 mph - N/A   Mostly Cloudy
9:53 AM 84.9 °F 91.4 °F 73.0 °F 67% 30.07 in 10.0 mi East 9.2 mph - N/A   Mostly Cloudy
10:53 AM 88.0 °F 95.6 °F 73.0 °F 61% 30.07 in 10.0 mi East 10.4 mph - N/A   Mostly Cloudy
11:53 AM 88.0 °F 96.5 °F 73.9 °F 63% 30.07 in 10.0 mi East 8.1 mph - N/A   Mostly Cloudy
12:53 PM 88.0 °F 94.7 °F 72.0 °F 59% 30.07 in 10.0 mi East 11.5 mph - N/A   Mostly Cloudy
1:53 PM 90.0 °F 97.9 °F 73.0 °F 57% 30.05 in 10.0 mi Variable 6.9 mph - N/A   Mostly Cloudy
2:53 PM 91.0 °F 100.4 °F 73.9 °F 57% 30.04 in 10.0 mi ESE 9.2 mph - N/A   Mostly Cloudy
3:53 PM 90.0 °F 96.9 °F 72.0 °F 55% 30.01 in 10.0 mi East 9.2 mph - N/A   Mostly Cloudy
4:53 PM 91.0 °F 99.3 °F 73.0 °F 55% 30.01 in 10.0 mi ESE 10.4 mph - N/A   Scattered Clouds
5:53 PM 89.1 °F 96.0 °F 72.0 °F 57% 30.01 in 10.0 mi East 11.5 mph - N/A   Scattered Clouds
6:53 PM 87.1 °F 94.5 °F 73.0 °F 63% 30.01 in 10.0 mi East 8.1 mph - N/A   Scattered Clouds
7:53 PM 86.0 °F 93.8 °F 73.9 °F 67% 30.01 in 10.0 mi ENE 8.1 mph - N/A   Mostly Cloudy
8:53 PM 86.0 °F 93.8 °F 73.9 °F 67% 30.03 in 10.0 mi East 6.9 mph - N/A   Mostly Cloudy
9:53 PM 84.9 °F 92.1 °F 73.9 °F 69% 30.05 in 10.0 mi NE 8.1 mph - N/A   Mostly Cloudy
10:53 PM 84.0 °F 91.9 °F 75.0 °F 74% 30.05 in 10.0 mi NE 3.5 mph - N/A   Mostly Cloudy
11:53 PM 84.9 °F 93.3 °F 75.0 °F 72% 30.04 in 10.0 mi ENE 6.9 mph - N/A   Partly Cloudy